Location: Recife
(8.0585°S, 34.8848°W)
Time: 10:24:53
(UTC-03:00)

SR - Pass Details

Date: 20 April 2026
Orbit: 568 x 852 km, 66.7° (Epoch: 12 May)

Event Time Altitude Azimuth Distance (km) Brightness Sun altitude
Rises 23:09:41 0° 338° (NNW) 3,397 - -85.7°
Reaches altitude 10° 23:12:10 10° 337° (NNW) 2,458 - -85.9°
Maximum altitude 23:17:53 79° 251° (WSW) 843 - -86.2°
Drops below altitude 10° 23:23:22 10° 163° (SSE) 2,361 - -86.0°
Sets 23:25:43 0° 162° (SSE) 3,254 - -85.8°
